Location: Pine Grove Post Office (historical)
(38.6782°N, 119.1240°W)
Time: 01:47:57
(UTC+00:00)

Daily predictions for brighter satellites

Satellite Brightness Start Highest point End
(mag) Time Altitude Azimuth Time Altitude Azimuth Time Altitude Azimuth
Cosmos 1295 Rocket 4.5 00:55:43 10° N 01:01:55 75° E 01:08:09 10° SSE
SMAP 3.3 00:59:19 10° SE 01:03:46 48° ENE 01:08:15 10° N
H-2A R/B 3.4 01:00:51 10° S 01:04:38 61° W 01:08:28 10° NNW
Cosmos 1862 4.2 01:01:05 10° NNW 01:05:02 54° W 01:08:54 10° S
Cosmos 2181 Rocket 4.4 01:01:01 10° SSE 01:07:04 45° E 01:13:05 10° NNE
Meteor 1-4 Rocket 3.9 01:08:35 10° SE 01:11:17 20° E 01:13:58 10° NE
Envisat 3.2 01:07:25 10° S 01:12:29 80° WSW 01:17:36 10° NNW
CORIOLIS 4.3 01:07:47 10° SSE 01:13:01 53° ENE 01:18:17 10° N
CZ-4C R/B 4.1 01:10:32 10° N 01:14:02 48° WNW 01:17:30 10° SSW
CZ-4B R/B 3.1 01:11:41 10° SSE 01:16:59 69° ENE 01:22:16 10° N
Cosmos 2237 Rocket 3.6 01:12:04 10° SW 01:17:11 35° WNW 01:22:21 10° N
H-2A R/B 2.3 01:13:03 10° N 01:17:16 75° WNW 01:21:33 10° SSW
NOAA 11 4.5 01:13:45 10° SE 01:18:51 45° ENE 01:24:00 10° N
AQUARIUS 4.2 01:15:08 10° SSE 01:19:33 61° ENE 01:23:59 10° N
CZ-2C R/B 4.4 01:16:51 10° E 01:19:37 15° ENE 01:22:18 10° NNE
USA 281 4.3 01:15:39 10° E 01:20:15 21° NE 01:24:51 10° N
CZ-4B R/B 1.8 01:19:00 10° NNE 01:21:56 37° E 01:24:53 10° S
Cosmos 773 Rocket 4.1 01:17:10 10° S 01:22:17 57° ESE 01:27:28 10° NNE
H-2A R/B 3.2 01:20:02 10° S 01:24:17 61° WSW 01:28:26 10° NNW
Radarsat Rocket 4.2 01:18:24 10° SSE 01:24:22 82° WSW 01:31:00 10° NNW
Cosmos 1943 4.5 01:22:07 10° SE 01:26:05 20° E 01:29:17 13° ENE
Cosmos 1633 Rocket 3.2 01:22:49 10° N 01:27:04 49° E 01:31:16 10° SSE
SKYMED 2 4.3 01:24:31 10° NNE 01:28:25 31° E 01:32:17 10° SSE
Cosmos 389 Rocket 3.9 01:27:53 10° SSW 01:31:06 38° WNW 01:34:19 10° N
Cosmos 2369 Rocket 3.3 01:27:37 10° N 01:32:03 23° NE 01:36:25 10° ESE
Cosmos 1606 3.9 01:28:18 10° SSW 01:32:03 46° W 01:35:49 10° N
Meteor 1-25 Rocket 4.2 01:30:57 10° N 01:36:33 63° E 01:42:12 10° SSE
ERS-2 2.2 01:33:50 10° NNE 01:37:27 57° ESE 01:41:02 10° S
CZ-4 R/B 3.3 01:40:23 13° NE 01:40:23 13° NE 01:41:08 10° NNE
Cosmos 1939 Rocket 3.2 01:38:05 10° SE 01:41:40 38° ENE 01:45:18 10° N
CREW DRAGON DEMO-1 DEB 2.6 01:39:21 10° NW 01:42:19 76° NE 01:44:39 15° ESE
Cosmos 1943 Rocket 2.4 01:38:44 10° N 01:44:02 44° ENE 01:49:21 10° SE
CZ-3B R/B 1.6 01:40:46 10° SSW 01:44:58 45° SE 01:45:50 29° E
IRS-1C Rocket 4.5 01:40:31 10° SE 01:45:24 41° ENE 01:50:20 10° N
CENTAUR R/B 3.9 01:44:02 10° SE 01:47:02 15° ESE 01:47:09 15° ESE
Cosmos 2218 Rocket 3.9 01:41:30 10° N 01:47:38 70° E 01:53:45 10° SSE
USA 81 4.0 01:43:28 10° N 01:48:46 79° E 01:54:02 10° S
FengYun 1-2 T 4.2 01:43:58 10° SSE 01:49:31 89° ENE 01:55:03 10° NNW
H-2A R/B 3.3 01:51:28 20° NE 01:51:28 20° NE 01:54:35 10° NNE
Cosmos 44 3.4 01:46:23 10° NNW 01:51:45 78° ENE 01:57:10 10° SE
Cosmos 2366 rocket 3.9 01:46:14 10° N 01:52:25 74° E 01:58:31 10° SSE
YAOGAN 1 4.2 01:59:59 18° NNE 01:59:59 18° NNE 02:01:29 10° NNE
Cosmos 489 Rocket 4.4 01:53:33 10° SSW 01:59:44 81° ESE 02:05:59 10° NNE
BREEZE-M R/B 2.1 02:03:04 10° WNW 02:06:03 76° SW 02:06:15 67° SSE
Cosmos 2297 4.0 02:00:45 10° NNW 02:06:25 70° WSW 02:12:05 10° SSE
Cosmos 1470 Rocket 3.4 02:02:33 10° N 02:06:54 77° E 02:11:12 10° S
SL-16 R/B 3.5 02:03:04 10° SW 02:08:18 38° WNW 02:13:34 10° N
Cosmos 2228 Rocket 3.6 02:04:55 10° SSE 02:09:08 39° E 02:09:52 36° ENE
Cosmos 1515 Rocket 3.4 02:05:58 10° S 02:10:20 88° E 02:14:45 10° N
NOSS 3-2 (A) 3.7 02:06:48 10° S 02:11:55 41° ESE 02:13:46 32° ENE
Cosmos 1812 3.6 02:08:31 10° SSE 02:11:05 31° SE 02:11:05 31° SE
Cosmos 1151 Rocket 4.4 02:09:54 10° SSW 02:13:54 38° WNW 02:17:55 10° N
Cosmos 1680 Rocket 4.3 02:11:33 10° SSE 02:15:47 31° ESE 02:15:47 31° ESE
COSMO-SKYMED 1 2.8 02:12:12 10° N 02:16:32 71° WNW 02:20:51 10° SSW
Cosmos 1782 3.4 02:12:56 10° SSW 02:16:49 57° W 02:20:44 10° N
Cosmos 1602 4.1 02:17:04 10° NNW 02:20:56 66° W 02:24:46 10° S
CZ-2D R/B 3.1 02:18:10 10° SSE 02:21:58 86° ENE 02:25:49 10° N
MOS 1 Rocket 3.6 02:19:55 18° NNE 02:23:55 62° E 02:29:12 10° S
Cosmos 1538 Rocket 4.4 02:19:12 10° SSW 02:24:30 67° WNW 02:29:12 14° NNE
USA 215 3.4 02:21:49 23° NE 02:26:06 68° NW 02:32:33 10° WSW
X-37B 1.5 02:23:29 10° W 02:26:11 41° NW 02:26:11 41° NW
Meteor 2-6 Rocket 4.0 02:23:25 10° S 02:29:02 73° E 02:32:54 20° NNE
USA 238 DEB 3.7 02:23:01 10° S 02:29:18 53° ESE 02:31:13 40° ENE
USA 238 3.7 02:23:07 10° S 02:29:24 52° ESE 02:31:16 41° ENE
Cosmos 2263 4.3 02:25:07 10° N 02:30:30 46° ENE 02:30:34 46° ENE
Okean-O 2.4 02:31:53 10° SSE 02:36:17 83° ENE 02:40:44 10° N
Cosmos 1933 Rocket 3.7 02:32:44 10° NNW 02:37:12 72° W 02:41:37 10° S
Nadezhda 3 Rocket 3.9 02:31:29 10° S 02:37:49 82° E 02:44:13 10° N
Cosmos 1689 Rocket 3.7 02:38:54 34° W 02:38:54 34° W 02:41:16 10° SW
Lacrosse 5 rocket 3.7 02:38:56 10° NW 02:40:07 11° NNW 02:40:39 11° NNW
Cosmos 1656 Rocket 4.5 02:38:09 10° N 02:41:47 34° NNE 02:41:47 34° NNE
Cosmos 1821 Rocket 3.9 02:46:59 10° N 02:53:16 87° W 02:59:36 10° S
USA 267 3.5 02:56:34 48° NNE 02:56:34 48° NNE 03:02:43 10° NW
CZ-2C R/B 3.4 02:53:58 10° S 02:59:01 60° W 03:03:52 10° NNW
Cosmos 1603 4.4 02:57:57 10° SW 03:03:25 51° WNW 03:05:29 34° N
USA 281 3.2 02:57:28 10° SSE 03:04:01 79° WSW 03:10:37 10° NNW
Cosmos 1943 3.8 03:04:10 10° SW 03:09:39 52° WNW 03:11:10 41° NNW
CZ-4 R/B 4.1 03:09:43 10° SSW 03:16:24 13° NW 03:16:53 10° NNW
Cosmos 2369 Rocket 2.9 03:10:53 10° NNW 03:16:21 51° WSW 03:19:05 28° SSW
Cosmos 1943 Rocket 4.3 03:23:07 10° NW 03:27:26 24° WSW 03:31:47 10° SSW
H-2A R/B 3.6 03:24:46 10° S 03:32:06 30° NW 03:34:56 10° NNW
NOSS 3-2 (C) 4.4 03:29:39 10° SW 03:32:46 36° SW 03:32:46 36° SW
CENTAUR R/B 3.2 03:30:47 10° SW 03:34:23 43° SW 03:34:23 43° SW
CENTAUR R/B 4.0 11:10:33 45° NE 11:10:33 45° NE 11:18:41 10° ESE
Atlas Centaur 2 4.5 11:17:04 21° SE 11:17:04 21° SE 11:19:31 10° ESE
Milstar 3 Cent rocket 4.1 11:26:49 32° SE 11:26:49 32° SE 11:34:00 10° ESE
ATLAS 2AS CENTAUR R/B 3.7 11:25:45 47° SE 11:26:20 48° ESE 11:33:51 10° NE
NOSS 3-2 (A) 4.3 11:38:28 63° SE 11:38:28 63° SE 11:45:31 10° SSE
Lacrosse 4 Rocket 4.4 11:39:59 14° E 11:39:59 14° E 11:41:08 10° E
